Location: Beaver Brook Trail
(44.0290°N, 71.8137°W)
Time: 03:31:20
(UTC+00:00)

SR - Pass Details

Date: 16 November 2024
Orbit: 573 x 858 km, 66.7° (Epoch: 03 December)

Event Time Altitude Azimuth Distance (km) Brightness Sun altitude
Exits shadow 11:04:16 - 330° (NNW) 3,075 ? -7.5°
Reaches altitude 10° 11:06:22 10° 333° (NNW) 2,281 ? -7.1°
Maximum altitude 11:11:36 66° 56° (NE) 868 ? -6.2°
Drops below altitude 10° 11:17:11 10° 139° (SE) 2,430 ? -5.3°
Sets 11:19:43 0° 142° (SE) 3,385 ? -4.9°
